Weather History for Jaffrey, NH

Change the Weather History Date:

Friday, May 9, 2014

  Actual Average Record
Temperature  
Mean Temperature 51 °F -  
Max Temperature 55 °F 62 °F 88 °F (2000)
Min Temperature 48 °F 39 °F 34 °F (1997)
Degree Days  
Heating Degree Days 14    
Growing Degree Days 1 (Base 50)    
Moisture  
Dew Point 47 °F    
Average Humidity 87    
Maximum Humidity 94    
Minimum Humidity 68    
Precipitation  
Precipitation 0.00 in - - ()
Sea Level Pressure  
Sea Level Pressure 30.16 in    
Wind  
Wind Speed 2 mph (South)    
Max Wind Speed 8 mph    
Max Gust Speed -    
Visibility 6 miles    
Events Rain    
Averages and records for this station are not official NWS values.
T = Trace of Precipitation, MM = Missing Value Source: NWS Daily Summary

Daily Weather History Graph

Daily Weather History Graph

Search for Another Location

Airport:

Trip Planner

Search our weather history database for the weather conditions in past years. The results will help you decide how hot, cold, wet, or windy it might be!

Date:

Astronomy

May. 09, 2014 Rise Set
Actual Time 5:32 AM EDT 7:57 PM EDT
Civil Twilight 5:00 AM EDT 8:29 PM EDT
Nautical Twilight 4:20 AM EDT 9:09 PM EDT
Astronomical Twilight 3:36 AM EDT 9:53 PM EDT
Moon 2:44 PM EDT (5/9) 2:40 AM EDT (5/9)
Length of Visible Light 15h 29m
Length of Day
14h 25m
Waxing Gibbous, 73% of the Moon is Illuminated
May 9
Waxing Gibbous
May 14
Full
May 21
Last Quarter
May 28
New
Jun 5
First Quarter

Hourly Weather History & Observations

Time (EDT) Temp. Dew Point Humidity Pressure Visibility Wind Dir Wind Speed Gust Speed Precip Events Conditions
12:52 AM 54.0 °F 50.0 °F 86% 30.19 in 10.0 mi South 3.5 mph - N/A   Mostly Cloudy
1:52 AM 53.1 °F 48.9 °F 86% 30.18 in 10.0 mi Calm Calm - 0.00 in Rain Light Rain
2:52 AM 53.1 °F 48.9 °F 86% 30.19 in 10.0 mi Calm Calm - 0.00 in   Overcast
3:24 AM 52.0 °F 50.0 °F 93% 30.18 in 10.0 mi Calm Calm - 0.00 in Rain Light Rain
3:33 AM 53.1 °F 50.0 °F 89% 30.18 in 10.0 mi Calm Calm - 0.00 in Rain Light Rain
3:52 AM 53.1 °F 48.9 °F 86% 30.19 in 10.0 mi Calm Calm - 0.00 in   Overcast
4:24 AM 51.1 °F 44.1 °F 77% 30.17 in 10.0 mi Calm Calm - N/A   Overcast
4:52 AM 50.0 °F 43.0 °F 77% 30.19 in 10.0 mi North 3.5 mph - N/A   Overcast
5:25 AM 48.9 °F 42.1 °F 77% 30.21 in 10.0 mi North 3.5 mph - N/A   Overcast
5:52 AM 48.9 °F 41.0 °F 74% 30.23 in 10.0 mi Variable 3.5 mph - N/A   Overcast
6:52 AM 48.9 °F 41.0 °F 74% 30.23 in 10.0 mi North 3.5 mph - N/A   Overcast
7:11 AM 48.9 °F 42.1 °F 77% 30.22 in 10.0 mi Variable 4.6 mph - N/A   Overcast
7:52 AM 48.9 °F 39.9 °F 71% 30.25 in 10.0 mi Calm Calm - N/A   Overcast
8:52 AM 50.0 °F 39.9 °F 68% 30.25 in 10.0 mi Calm Calm - N/A   Overcast
1:52 PM 50.0 °F 43.0 °F 77% 30.22 in 10.0 mi Calm Calm - N/A   Overcast
2:52 PM 53.1 °F 45.0 °F 74% 30.20 in 10.0 mi Calm Calm - N/A   Overcast
3:47 PM 51.8 °F 46.4 °F 82% 30.16 in 2.5 mi Calm Calm - N/A   Overcast
3:48 PM 51.1 °F 46.9 °F 86% 30.19 in 2.5 mi Calm Calm - N/A   Overcast
4:05 PM 50.0 °F 46.9 °F 89% 30.16 in 5.0 mi Calm Calm - N/A   Overcast
4:52 PM 51.1 °F 48.0 °F 89% 30.18 in 2.5 mi Calm Calm - N/A   Overcast
5:01 PM 51.1 °F 48.0 °F 89% 30.15 in 3.0 mi Calm Calm - N/A   Overcast
5:10 PM 51.1 °F 48.0 °F 89% 30.15 in 2.0 mi Variable 4.6 mph - N/A   Overcast
5:20 PM 51.1 °F 48.0 °F 89% 30.15 in 1.5 mi Calm Calm - N/A   Overcast
5:46 PM 51.8 °F 48.2 °F 88% 30.14 in 1.2 mi Calm Calm - N/A   Overcast
5:52 PM 51.1 °F 48.9 °F 92% 30.17 in 1.2 mi Calm Calm - N/A   Overcast
6:03 PM 51.1 °F 48.9 °F 92% 30.14 in 1.5 mi Calm Calm - N/A   Overcast
6:23 PM 51.1 °F 48.9 °F 92% 30.13 in 2.0 mi SSE 4.6 mph - N/A   Overcast
6:52 PM 51.1 °F 48.9 °F 92% 30.16 in 1.5 mi Calm Calm - N/A   Overcast
7:01 PM 51.1 °F 48.9 °F 92% 30.13 in 1.2 mi Calm Calm - N/A   Overcast
7:19 PM 51.1 °F 48.9 °F 92% 30.13 in 1.8 mi South 4.6 mph - N/A   Overcast
7:28 PM 51.1 °F 48.9 °F 92% 30.13 in 2.0 mi SSE 3.5 mph - N/A   Overcast
7:52 PM 51.1 °F 48.9 °F 92% 30.15 in 2.5 mi Calm Calm - N/A   Overcast
8:00 PM 51.1 °F 48.9 °F 92% 30.12 in 4.0 mi Calm Calm - N/A   Overcast
8:36 PM 52.0 °F 48.9 °F 89% 30.11 in 4.0 mi Variable 3.5 mph - N/A   Overcast
8:52 PM 52.0 °F 50.0 °F 93% 30.14 in 6.0 mi Calm Calm - N/A   Overcast
9:13 PM 52.0 °F 50.0 °F 93% 30.10 in 7.0 mi SSE 6.9 mph - N/A   Overcast
9:38 PM 52.0 °F 50.0 °F 93% 30.10 in 5.0 mi South 6.9 mph - N/A   Overcast
9:52 PM 52.0 °F 50.0 °F 93% 30.12 in 6.0 mi South 6.9 mph - N/A   Overcast
11:18 PM 53.1 °F 51.1 °F 93% 30.07 in 7.0 mi South 4.6 mph - N/A   Overcast
11:41 PM 53.1 °F 51.1 °F 93% 30.06 in 2.5 mi South 5.8 mph - N/A   Overcast
11:49 PM 53.6 °F 51.8 °F 94% 30.07 in 4.0 mi South 6.9 mph - N/A   Overcast
11:52 PM 54.0 °F 52.0 °F 93% 30.09 in 4.0 mi South 8.1 mph - N/A   Overcast